Location: ?????????
(38.5999°N, 22.7695°E)
Time: 10:09:17
(UTC+00:00)

Cosmos 1908 Rocket - Pass Details

Date: 23 May 2024
Orbit: 602 x 629 km, 82.5° (Epoch: 18 June)

Event Time Altitude Azimuth Distance (km) Brightness Sun altitude
Rises 00:16:38 0° 348° (NNW) 2,912 7.7 -25.3°
Reaches altitude 10° 00:18:54 10° 344° (NNW) 1,997 6.7 -25.1°
Enters shadow 00:22:28 49° 308° (NW) 797 4.1 -24.7°
